TimeEST,TemperatureF,Dew PointF,Humidity,Sea Level PressureIn,VisibilityMPH,Wind Direction,Wind SpeedMPH,Gust SpeedMPH,PrecipitationIn,Events,Conditions,WindDirDegrees,DateUTC
12:54 AM,32.0,18.0,56,30.15,10.0,North,10.4,17.3,N/A,,Overcast,360,2008-11-18 05:54:00
1:54 AM,30.9,19.0,61,30.15,10.0,North,6.9,-,N/A,,Overcast,360,2008-11-18 06:54:00
2:54 AM,28.9,17.1,61,30.16,10.0,NNW,11.5,-,0.00,Snow,Light Snow,340,2008-11-18 07:54:00
3:54 AM,28.0,10.0,47,30.17,10.0,NNW,15.0,32.2,0.00,,Overcast,330,2008-11-18 08:54:00
4:54 AM,28.0,10.9,49,30.17,10.0,NNW,13.8,-,N/A,,Overcast,340,2008-11-18 09:54:00
5:54 AM,25.0,18.0,75,30.19,3.0,North,18.4,32.2,0.00,Snow,Light Snow,350,2008-11-18 10:54:00
6:54 AM,26.1,10.9,53,30.21,10.0,NNW,27.6,34.5,0.00,,Mostly Cloudy,330,2008-11-18 11:54:00
7:54 AM,26.1,10.0,51,30.23,10.0,NNW,20.7,31.1,N/A,,Clear,340,2008-11-18 12:54:00
8:54 AM,27.0,10.0,49,30.26,10.0,North,17.3,29.9,N/A,,Scattered Clouds,350,2008-11-18 13:54:00
9:54 AM,28.9,12.0,49,30.27,10.0,NNW,25.3,36.8,N/A,,Mostly Cloudy,340,2008-11-18 14:54:00
10:54 AM,28.9,14.0,54,30.30,10.0,North,20.7,29.9,N/A,,Overcast,350,2008-11-18 15:54:00
11:54 AM,30.0,15.1,54,30.30,7.0,North,20.7,34.5,0.00,Snow,Light Snow,350,2008-11-18 16:54:00
12:54 PM,30.9,14.0,50,30.30,10.0,NW,19.6,33.4,0.00,,Mostly Cloudy,320,2008-11-18 17:54:00
1:54 PM,32.0,10.9,42,30.28,10.0,NNW,19.6,29.9,N/A,,Mostly Cloudy,340,2008-11-18 18:54:00
2:54 PM,32.0,9.0,38,30.29,10.0,North,21.9,31.1,N/A,,Mostly Cloudy,360,2008-11-18 19:54:00
3:54 PM,30.9,10.9,43,30.30,10.0,NNW,21.9,28.8,N/A,,Scattered Clouds,340,2008-11-18 20:54:00
4:54 PM,30.0,10.9,45,30.32,10.0,North,18.4,26.5,N/A,,Mostly Cloudy,350,2008-11-18 21:54:00
5:54 PM,28.9,10.0,45,30.33,10.0,NNW,16.1,29.9,N/A,,Mostly Cloudy,340,2008-11-18 22:54:00
6:54 PM,28.0,10.9,49,30.35,10.0,NNW,13.8,-,N/A,,Mostly Cloudy,340,2008-11-18 23:54:00
7:54 PM,27.0,10.9,51,30.36,10.0,NNW,15.0,24.2,N/A,,Partly Cloudy,330,2008-11-19 00:54:00
8:54 PM,27.0,10.9,51,30.36,10.0,NNW,9.2,-,N/A,,Clear,340,2008-11-19 01:54:00
9:54 PM,26.1,10.9,53,30.35,10.0,NNW,12.7,-,N/A,,Clear,340,2008-11-19 02:54:00
10:54 PM,26.1,10.9,53,30.35,10.0,NNW,10.4,20.7,N/A,,Clear,340,2008-11-19 03:54:00
11:54 PM,25.0,12.0,58,30.36,10.0,NNW,10.4,-,N/A,,Clear,340,2008-11-19 04:54:00